User: anonymous   Login
Location: Aytr�
(46.1357°N, 1.1145°W)
Time: 06:23:19
(UTC+00:00)
Language:

H-2A R/B - Orbit

View from above orbital plane
View from above orbital plane
View from above satellite
View from above satellite

Ground track
Ground track

The orbit data is extracted from the following two-line orbital elements,

1 38341U 12025E   21134.48291088  .00000172  00000-0  27715-4 0  9996
2 38341  98.5275 317.6470 0054204 248.1691 111.3750 14.84216598486465
Epoch (UTC): 14 May 2021 11:35:23
Eccentricity: 0.0054204
inclination: 98.5275°
perigee height: 578 km
apogee height: 654 km
right ascension of ascending node: 317.6470°
argument of perigee: 248.1691°
revolutions per day: 14.84216598
mean anomaly at epoch: 111.3750°
orbit number at epoch: 48646

The dashed part of the orbit path shows where the satellite is in the earth's shadow,  

DLR